Tracking 30743 objects as of 25-Jun-2025
HD Live streaming from Space Station
objects crossing your sky now

DELTA 1 DEB

Track DELTA 1 DEB now!
10-day predictions


NORAD ID: 21326
Int'l Code: 1975-052AU
Perigee: 1,087.4 km
Apogee: 1,132.5 km
Inclination: 99.9 °
Period: 107.3 minutes
Semi major axis: 7480 km
RCS: 0.0568 m2 (small)
Launch date: June 12, 1975
Source: United States (US)
Launch site: AIR FORCE WESTERN TEST RANGE (AFWTR)

Note: This is SATELLITE DEBRIS
Your satellite tracking list
Your tracking list is empty




NASA's NSSDC Master Catalog

Two Line Element Set (TLE):
1 21326U 75052AU  25175.67521678  .00000136  00000-0  32074-3 0  9994
2 21326  99.8660  68.2022 0030145 202.8916 183.9626 13.41732887668037
Source of the keplerian elements: AFSPC